This is the latest recevied weather packets stored in our database for station/object KH6DH-13. If no packets are shown the sender has not sent any weather packets the latest 10 day(s).
| Time | Temp. | Humidity | Pressure | Rain* | Wind** | Luminosity | Snow |
|---|---|---|---|---|---|---|---|
| 1777413848 | 28.33° C | - | - | 0 mm | 2.24 m/s, 89° | - | - |
| 1777413247 | 28.33° C | - | - | 0 mm | 0.89 m/s, 10° | - | - |
| 1777412646 | 28.33° C | - | - | 0 mm | 1.34 m/s, 101° | - | - |
| 1777412045 | 27.78° C | - | - | 0 mm | 2.68 m/s, 105° | - | - |
| 1777411444 | 27.78° C | - | - | 0 mm | 1.34 m/s, 63° | - | - |
| 1777410843 | 27.78° C | - | - | 0 mm | 2.24 m/s, 80° | - | - |
| 1777410242 | 27.78° C | - | - | 0 mm | 2.24 m/s, 52° | - | - |
| 1777409641 | 27.22° C | - | - | 0 mm | 2.68 m/s, 73° | - | - |
| 1777409040 | 27.22° C | - | - | 0 mm | 0.89 m/s, 82° | - | - |
| 1777408439 | 26.67° C | - | - | 0 mm | 1.34 m/s, 45° | - | - |
| 1777407838 | 26.67° C | - | - | 0 mm | 1.79 m/s, 39° | - | - |
| 1777407237 | 26.11° C | - | - | 0 mm | 2.68 m/s, 21° | - | - |
| 1777406631 | 26.11° C | - | - | 0 mm | 1.79 m/s, 108° | - | - |
| 1777406030 | 26.11° C | - | - | 0 mm | 0.89 m/s, 84° | - | - |
| 1777405429 | 25.56° C | - | - | 0 mm | 1.34 m/s, 165° | - | - |
| 1777404828 | 25.56° C | - | - | 0 mm | 1.79 m/s, 83° | - | - |
| 1777404227 | 25.56° C | - | - | 0 mm | 1.34 m/s, 100° | - | - |
| 1777403626 | 25.56° C | - | - | 0 mm | 1.79 m/s, 93° | - | - |
| 1777403025 | 25° C | - | - | 0 mm | 1.34 m/s, 72° | - | - |
| 1777402424 | 25° C | - | - | 0 mm | 1.34 m/s, 108° | - | - |
| 1777401823 | 25° C | - | - | 0 mm | 0.45 m/s, 98° | - | - |
| 1777401222 | 24.44° C | - | - | 0 mm | 1.34 m/s, 77° | - | - |
| 1777400621 | 24.44° C | - | - | 0 mm | 0.89 m/s, 46° | - | - |
| 1777400020 | 24.44° C | - | - | 0 mm | 0 m/s | - | - |
| 1777399419 | 24.44° C | - | - | 0 mm | 1.34 m/s, 98° | - | - |
* Rain latest hour (hover to see other rain measurements)
** Current wind speed in m/s (hover to see current wind gust speed)